This is the latest recevied weather packets stored in our database for station/object KC3VCX. If no packets are shown the sender has not sent any weather packets the latest 10 day(s).
| Time | Temp. | Humidity | Pressure | Rain* | Wind** | Luminosity | Snow |
|---|---|---|---|---|---|---|---|
| 1777820690 | 9.44° C | 49% | 1019.3 hPa | 0 mm | - | 682 W/m² | - |
| 1777820386 | 8.89° C | 49% | 1019.2 hPa | 0 mm | - | 754 W/m² | - |
| 1777820084 | 8.89° C | 50% | 1019.3 hPa | 0 mm | - | 674 W/m² | - |
| 1777819781 | 8.33° C | 50% | 1019.5 hPa | 0 mm | - | 652 W/m² | - |
| 1777819479 | 8.89° C | 49% | 1019.3 hPa | 0 mm | - | 663 W/m² | - |
| 1777819177 | 8.89° C | 49% | 1019.4 hPa | 0 mm | - | 637 W/m² | - |
| 1777818868 | 8.89° C | 52% | 1019.4 hPa | 0 mm | - | 649 W/m² | - |
| 1777818564 | 8.33° C | 54% | 1019.5 hPa | 0 mm | - | 609 W/m² | - |
| 1777818262 | 8.89° C | 55% | 1019.4 hPa | 0 mm | - | 592 W/m² | - |
| 1777817957 | 7.78° C | 53% | 1019.3 hPa | 0 mm | - | 577 W/m² | - |
| 1777817655 | 7.78° C | 56% | 1019.3 hPa | 0 mm | - | 564 W/m² | - |
| 1777817351 | 8.33° C | 58% | 1019.4 hPa | 0 mm | - | 552 W/m² | - |
| 1777817049 | 7.78° C | 57% | 1019.5 hPa | 0 mm | - | 537 W/m² | - |
| 1777816743 | 7.78° C | 59% | 1019.6 hPa | 0 mm | - | 523 W/m² | - |
| 1777816441 | 7.78° C | 60% | 1019.6 hPa | 0 mm | - | 509 W/m² | - |
| 1777816139 | 7.78° C | 61% | 1019.5 hPa | 0 mm | - | 494 W/m² | - |
| 1777815837 | 7.78° C | 62% | 1019.6 hPa | 0 mm | - | 479 W/m² | - |
| 1777815534 | 7.22° C | 63% | 1019.6 hPa | 0 mm | - | 464 W/m² | - |
| 1777815231 | 7.22° C | 62% | 1019.5 hPa | 0 mm | - | 448 W/m² | - |
| 1777814927 | 6.67° C | 63% | 1019.6 hPa | 0 mm | - | 434 W/m² | - |
| 1777814624 | 6.11° C | 64% | 1019.6 hPa | 0 mm | - | 417 W/m² | - |
| 1777814321 | 6.11° C | 64% | 1019.6 hPa | 0 mm | - | 404 W/m² | - |
| 1777814017 | 6.11° C | 65% | 1019.7 hPa | 0 mm | - | 388 W/m² | - |
| 1777813710 | 5.56° C | 66% | 1019.5 hPa | 0 mm | - | 373 W/m² | - |
| 1777813407 | 5.56° C | 66% | 1019.7 hPa | 0 mm | - | 356 W/m² | - |
* Rain latest hour (hover to see other rain measurements)
** Current wind speed in m/s (hover to see current wind gust speed)